Flag for Germany Weather past 2 weeks in Forchheim, Bavaria, Germany

Now
97 °F

Overcast.


Feels Like: 97 °F
Forecast: 70 / 97 °F
Wind: 2 mph from South

Location: Bamberg

Current Time: Jul 4, 2015 at 5:30:48 PM

Latest Report: Jul 4, 2015 at 5:00 PM


Visibility: 25 mi

Pressure: 30.04 "Hg

Humidity: 27%

Dew point: 58 °F

Location of ForchheimLocation

Historic Weather in Forchheim — Graph

°F

Forchheim temperature yesterday

Maximum temperature yesterday: 92 °F (at 6:00 PM)
Minimum temperature yesterday: 60 °F (at 5:00 AM)
Average temperature yesterday: 78 °F

Past Weeks' High & Low Weather Summary

 TemperatureHumidityPressure
High97 °F (Jul 4, 4:00 PM)100% (Jun 28, 3:00 AM)30.26 "Hg (Jun 28, 3:00 AM)
Low45 °F (Jun 25, 2:00 AM)28% (Jun 30, 3:00 PM)29.70 "Hg (Jun 23, 1:00 AM)
Average64 °F72%30.10 "Hg
* Reported Jun 19 4:00 PM — Jul 4 4:00 PM, Forchheim, Weather by CustomWeather, © 2015

Note: Actual official high and low records may vary slightly from our data, if they occured in-between our weather recording intervals... More about our weather records

Advertising

Forchheim weather history for previous 24 hours

 ConditionsComfort  
Time TempWeatherWind HumidityBarometerVisibility
4:00 PM
Sat, Jul 4
97 °FOvercast.2 mph29%30.05 "Hg25 mi
3:00 PM96 °FSunny.2 mph30%30.06 "Hg22 mi
2:00 PM94 °FSunny.3 mph31%30.08 "Hg19 mi
1:00 PM92 °FSunny.6 mph37%30.10 "Hg18 mi
12:00 PM89 °FSunny.5 mph40%30.12 "Hg17 mi
11:00 AM87 °FSunny.3 mph44%30.13 "Hg19 mi
10:00 AM84 °FOvercast.3 mph48%30.14 "Hg19 mi
9:00 AM80 °FPartly sunny.1 mph58%30.15 "Hg17 mi
8:00 AM75 °FSunny.1 mph66%30.16 "Hg10 mi
7:00 AM68 °FFog.No wind87%30.18 "Hg4 mi
6:00 AM64 °FFog.1 mph95%30.19 "Hg4 mi
5:00 AM64 °FFog.1 mph95%30.18 "Hg4 mi
4:00 AM65 °FFog.1 mph94%30.19 "Hg4 mi
3:00 AM66 °FClear.No wind92%30.19 "Hg6 mi
2:00 AM66 °FClear.1 mph91%30.19 "Hg6 mi
1:00 AM68 °FOvercast.1 mph88%30.19 "Hg6 mi
12:00 AM70 °FOvercast.1 mph86%30.19 "Hg10 mi
11:00 PM
Fri, Jul 3
73 °FOvercast.1 mph80%30.18 "Hg12 mi
10:00 PM76 °FOvercast.1 mph75%30.17 "Hg13 mi
9:00 PM84 °FOvercast.2 mph51%30.16 "Hg19 mi
8:00 PM90 °FOvercast.2 mph39%30.15 "Hg22 mi
7:00 PM91 °FPassing clouds.3 mph33%30.13 "Hg22 mi
6:00 PM92 °FSunny.2 mph30%30.14 "Hg25 mi
5:00 PM92 °FPassing clouds.3 mph33%30.15 "Hg25 mi
Weather by CustomWeather, © 2015

See weather overviewHow to use our weather pages